SL-12 R/B(2), 11571

Orbit data source: Space-Track

SL-12 R/B(2), 11571 is space debris in GEO originally from a launch on Tue, 20 Sep 1977 UTC launched from the Tyuratam Missile And Space Complex (TTMTR). Debris objects in space refer to the collection of defunct objects orbiting the Earth. Examples of debris include non-operational satellites, rocket bodies, and fragments generated from explosions, collisions, or faulty payload assembly.

Not visible in the next 10 days
Identifier
11571, 1977-092G
Orbit
GEO
Country
Flag of CISCIS
Related business
Manufacturer
NPO Energiya
Mission
Spacecraft
Bus & Motor
BLOK DM, Unknown motor
Mass
2,440 kg wet, 2,440 kg dry
Launch date (UTC)
1977-09-20 (48 years ago)
Launch vehicle
Unknown
Launch site
Tyuratam Missile And Space Complex (TTMTR)
Object type
Payload
Rocket body
Debris
Shape & HBR
Unknown
Radar Cross Section
Large (>1 m²)

Expand to show TLE details & history
Last TLE update: 14 hours ago

TLE from 14 hours ago
0 SL-12 R/B(2)
1 11571U 77092G   26061.62707514 -.00000334  00000-0  00000+0 0  9997
2 11571   3.8020 270.9271 0009007 176.9212  40.3507  1.01287399121870
Epoch: 2026-03-02T15:02Z
TLE epoch observation values (Epoch: 2026-03-02T15:02:59.292Z)
Latitude
-2.31078°
Longitude
102.08824°
Altitude
35,475.421 km
Speed
3.087 km/s
True Right ascension
08h 33m 00s
True Declination
-2° 18' 30"
Sunlit
Object was in daylight at epoch
Visualization orbit readout
Latitude
Unknown
Longitude
Unknown
Altitude
Unknown
Speed
Unknown
Apparent Right ascension
Unknown
Apparent Declination
Unknown
Sunlit
N/A
Visualization observer readout
Local Sidereal Time
08:40:12
Azimuth
Unknown
Elevation
Unknown
Doppler factor
Unknown
Orbital elements
Apogee altitude
35,543.058 km
Perigee altitude
35,467.609 km
Semi-major axis
41,883.47 km
Eccentricity
0.0009
Inclination
3.802°
RAAN
270.9271°
Arg. of periapsis
176.9212°
True anomaly
40.41758°
Mean anomaly
40.3507°
Eccentric anomaly
40.38414°
Mean motion
0.25321 °/min
Orbital period
1,421.75 mins
BSTAR
0
Loading maneuver chart data...
Computing Atmospheric mass density...
Loading historical data...
Loading historical data...
Loading historical data...
Loading historical data...
Loading historical data...
Loading historical data...
Loading historical data...

Documentation

Showing up to 5 results
|